User: anonymous   Login
Location: Oronoko Observatory
(41.9167°N, 86.3833°W)
Time: 21:36:17
(UTC-04:00)
Language:

PAYLOAD A - Orbit

View from above orbital plane
View from above orbital plane
View from above satellite
View from above satellite

Ground track
Ground track

The orbit data is extracted from the following two-line orbital elements,

1 27840U 03031A   14295.12705831  .00000123  00000-0  51030-4 0  6790
2 27840 098.2264 318.6034 0099229 159.4496 295.1086 14.38733234593969
Epoch (UTC): 22 October 2014 03:02:57
Eccentricity: 0.0099229
inclination: 98.2264°
perigee height: 692 km
apogee height: 833 km
right ascension of ascending node: 318.6034°
argument of perigee: 159.4496°
revolutions per day: 14.38733234
mean anomaly at epoch: 295.1086°
orbit number at epoch: 59396

The dashed part of the orbit path shows where the satellite is in the earth's shadow,  

DLR